{"data":{"norad_id":53555,"epoch":"2026-09-20T13:09:38.011104Z","epoch_age_seconds":74810,"freshness":"FRESH","line1":"1 53555U 22101AE  26263.54835661  .00000395  00000+0  42901-4 0  9992","line2":"2 53555  53.1607 268.7056 0001199  66.9107 293.2011 15.08837191226382","mean_motion":15.08837191,"eccentricity":0.0001199,"inclination_deg":53.1607,"raan_deg":268.7056,"arg_perigee_deg":66.9107,"mean_anomaly_deg":293.2011,"bstar":4.2901e-5,"rev_number":22638,"period_min":95.437732353722,"perigee_km":538.92252007857,"apogee_km":540.58142985476,"semimajor_km":6917.8889749667,"source":"CELESTRAK","updated_at":"2026-09-21T09:00:32.926262Z"}}